OneWeb SL0546

operational
NORAD ID: 56048 Int'l Des: 2023-043 Owner: ONEWEBN Country: UK Constellation: oneweb
LEOCIRCULARPOLARONEWEB_TYPE

OneWeb SL0546について

説明を読み込み中...

リアルタイム位置

3D地球を読み込み中...

次回通過

高度履歴

Altitude vs Time

uPlot chart will show altitude changes over time

軌道要素

1 56048U 23043C 25304.65273634 .00000003 00000-0 -25394-4 0 9996
2 56048 87.9002 274.2823 0002043 64.2020 295.9322 13.16595003128895
Epoch: Oct 31, 2025 • Age: 17 hours

現在のステータス

高度 1199.8 km
速度 7.26 km/s
衛星直下点 27.35°N, 111.07°E
打ち上げ日 Mar 26, 2023
運用期間 2.6 years
タイプ internet

技術仕様

分類 Payload
質量 148.00 kg
乾燥質量 140.00 kg
総質量 148.00 kg
長さ 1.30 m
直径 1.00 m
スパン 5.00 m
形状 Trapezoid+2 pan
製造者 ONEWUS
バスタイプ ARROW
フェーズステータス In Orbit
所有者/国 ONEWEBN/UK

大規模コンステレーション

Loading constellations...